sat.trackr.live / text

‹ back to catalog

STARLINK-32794

NORAD 62844 · 2025-019R

PAYLOAD ACTIVE UNKNOWN

§ Identity

Operator
Country
US
Launch date
2025-01-27
Launch site
AFETR
Launch vehicle
Mass (kg)
RCS (m²)

Purposes: comms

External: N2YO · Heavens-Above · Gunter

§ Orbital elements

Epoch: 2026-09-20T18:37:10.862688Z

Period
94.27 min
Inclination
43.0027°
Eccentricity
0.0000278
Mean motion
15.27588330 rev/d
Perigee alt
482.8 km
Apogee alt
483.2 km
Semi-major
6,861.2 km
B*
5.5310e-4
RAAN
67.5099°
Arg perigee
60.0789°
Mean anomaly
300.0090°
Rev number
9,208

§ Raw data

STARLINK-327941 62844U 25019R   26263.77582017  .00014993  00000+0  55310-3 0  99992 62844  43.0027  67.5099 0000278  60.0789 300.0090 15.27588330 92088

JSON: /api/v1/satellites/62844 · /tle

For live sub-satellite position, see the globe view (requires WebGL).

§ Visibility from observer

Set your observer location to see the next 7 days of passes ≥ 10°. The values pass through the URL so the page stays shareable.

No JS? Fill the form by hand. The geolocation button needs JavaScript.